Regional Weather Roundup
Issued by NWS

Home | Current Version | Previous Version | Graphics & Text | Print | Product List | Glossary On
Versions: 1 2 3 4 5 6 7 8 9 10 11 12 13 14 15 16 17 18 19 20 21 22 23 24 25 26 27 28 29 30 31 32 33 34 35 36 37 38 39 40 41 42 43 44 45 46 47 48 49 50
015
ASUS43 KOAX 292310
RWRNE

WEATHER ROUNDUP FOR NEBRASKA
NATIONAL WEATHER SERVICE OMAHA NE
600 PM CDT SAT APR 29 2017

NOTES: SATELLITE DATA IS BEING USED TO AUGMENT CLOUD COVER ABOVE
       12000 FEET.
       "FAIR" INDICATES FEW OR NO CLOUDS BELOW 12,000 FEET WITH NO
       SIGNIFICANT WEATHER AND/OR OBSTRUCTIONS TO VISIBILITY.

  * THESE STATIONS DO NOT REPORT WEATHER SUCH AS RAIN...SNOW OR FOG.

NEZ001>004-019>022-054>056-300000-
NEBRASKA PANHANDLE

CITY           SKY/WX    TMP DP  RH WIND       PRES   REMARKS
SCOTTSBLUFF    CLOUDY    45  26  47 N13       30.19F
ALLIANCE       CLOUDY    47  20  34 N20       30.14F
CHADRON        MOSUNNY   50  25  37 NE13      30.17F
KIMBALL        CLOUDY    40  22  49 N20G29    30.16F WCI  30
SIDNEY         CLOUDY    44  22  41 N25G33    30.12F
$$

NEZ057>060-069>072-079>082-300000-
SOUTHWEST NEBRASKA

CITY           SKY/WX    TMP DP  RH WIND       PRES   REMARKS
NORTH PLATTE   CLOUDY    46  25  43 NE15G24   30.07S
IMPERIAL       CLOUDY    41  26  55 NE17G29   30.10R
LEXINGTON      CLOUDY    43  32  63 N15G25    30.04S
MCCOOK         CLOUDY    41  32  70 N23G29    30.03R
OGALLALA       PTSUNNY   49  18  28 N21G28    30.08F
$$

NEZ005>010-023>029-035>040-094-300000-
NORTH CENTRAL NEBRASKA

CITY           SKY/WX    TMP DP  RH WIND       PRES   REMARKS
VALENTINE      CLOUDY    53  14  21 NE22      30.12F
AINSWORTH      MOSUNNY   50  24  35 NE21G26   30.10F
BROKEN BOW     CLOUDY    46  27  47 NE17G24   30.04F
O`NEILL        CLOUDY    49  22  35 NE18G24   30.09S
ORD            CLOUDY    46  28  49 NE18G26   30.04F
THEDFORD       CLOUDY    49  23  35 N22       30.09F
$$

NEZ041-046>049-061>064-073>077-083>087-300000-
SOUTH CENTRAL NEBRASKA

CITY           SKY/WX    TMP DP  RH WIND       PRES   REMARKS
GRAND ISLAND   LGT RAIN  42  35  76 NE23G32   30.04R
AURORA         CLOUDY    42  36  78 NE22G29   30.02R
HASTINGS       CLOUDY    42  34  73 NE28G35   30.02R
HEBRON         LGT RAIN  41  39  94 NE20G32   29.94F
HOLDREGE       DRIZZLE   42  32  69 N29G37    30.00S
KEARNEY *      CLOUDY    45  30  57 N23G30    30.03R
YORK           LGT RAIN  41  39  93 NE26      30.01R
$$

NEZ011>018-030>034-042>045-300000-
NORTHEAST NEBRASKA

CITY           SKY/WX    TMP DP  RH WIND       PRES   REMARKS
NORFOLK        CLOUDY    48  30  49 NE14G22   30.05R
ALBION         CLOUDY    47  32  55 NE10G18   30.05R
BLAIR          LGT RAIN  43  40  87 NE17G24   29.98R
FREMONT        CLOUDY    45  36  70 NE15G23   30.03R
TEKAMAH        LGT RAIN  46  36  68 NE26G33   30.03R
WAYNE          CLOUDY    49  30  48 NE22G28   30.06R
$$

NEZ050>053-065>068-078-088>093-300000-
SOUTHEAST NEBRASKA

CITY           SKY/WX    TMP DP  RH WIND       PRES   REMARKS
LINCOLN        LGT RAIN  44  40  85 NE21      30.01R FOG
OMAHA EPPLEY   LGT RAIN  45  38  76 NE17G32   29.99R
BEATRICE       LGT RAIN  43  41  95 NE18G26   29.95R
FALLS CITY     LGT RAIN  44  42  93 NE17G25   29.89R FOG
NEBRASKA CITY  HVY RAIN  42  42  99 NE20      29.94R
PLATTSMOUTH    DRIZZLE   42  39  88 N14G25    29.97S
$$

NEZ044-045-051>053-067-300000-
OMAHA AREA

CITY           SKY/WX    TMP DP  RH WIND       PRES   REMARKS
OMAHA EPPLEY   LGT RAIN  45  38  76 NE17G32   29.99R
BLAIR          LGT RAIN  43  40  87 NE17G24   29.98R
FREMONT        CLOUDY    45  36  70 NE15G23   30.03R
MILLARD        DRIZZLE   45  42  88 N6G20     29.99S
OFFUTT AFB     LGT RAIN  43  40  87 NE17G25   29.98R FOG
PLATTSMOUTH    DRIZZLE   42  39  88 N14G25    29.97S
WAHOO          LGT RAIN  44  38  80 NE25G35   30.00S
$$




USA.gov is the U.S. government's official web portal to all federal, state and local government web resources and services.